Regional Weather Roundup
Issued by NWS

Home | Current Version | Previous Version | Graphics & Text | Print | Product List | Glossary On
Versions: 1 2 3 4 5 6 7 8 9 10 11 12 13 14 15 16 17 18 19 20 21 22 23 24 25 26 27 28 29 30 31 32 33 34 35 36 37 38 39 40 41 42 43 44 45 46 47 48 49 50
000
ASUS43 KLSX 010959
RWRMO

WEATHER SUMMARY FOR MISSOURI
NATIONAL WEATHER SERVICE SPRINGFIELD MO
400 AM CST SUN MAR 01 2015

NOTE: "FAIR" INDICATES FEW OR NO CLOUDS BELOW 12,000 FEET WITH NO
       SIGNIFICANT WEATHER AND/OR OBSTRUCTIONS TO VISIBILITY.
       CURRENT SKY AND/OR WEATHER CONDITIONS ARE NOT AVAILABLE FOR
       CHILLICOTHE AND FARMINGTON.

MOZ001>031-035>038-043-044-053-054-011100-
...NORTHERN AND WESTERN MISSOURI...

CITY           SKY/WX    TMP DP  RH WIND       PRES   REMARKS
KANSAS CTY INT CLOUDY    22  20  92 CALM      30.34F
KANSAS C DTWN  CLOUDY    24  20  84 CALM      30.36F
LEE`S SUMMIT   CLOUDY    22  20  92 CALM      30.34F
ST JOSEPH      CLOUDY    23  20  88 CALM      30.36F FOG
CHILLICOTHE      N/A     22  19  89 CALM      30.37S
KIRKSVILLE     LGT SNOW  20  19  96 N5        30.34F FOG     WCI  13

$$
MOZ066>068-077>081-088>096-101>105-011100-
...SOUTHWEST MISSOURI...

CITY           SKY/WX    TMP DP  RH WIND       PRES   REMARKS
SPRINGFIELD    CLOUDY    27  26  96 CALM      30.30R FOG
JOPLIN         FOG       27  26  96 CALM      30.33S VSB 1

$$
MOZ032>034-039>042-045>050-055>058-069>072-011100-
...CENTRAL MISSOURI...

CITY           SKY/WX    TMP DP  RH WIND       PRES   REMARKS
COLUMBIA       LGT SNOW  24  22  91 SE3       30.33S FOG
JEFFERSON CITY LGT SNOW  25  22  88 CALM      30.36F FOG
ROLLA          CLOUDY    25  24  96 CALM      30.30S FOG
SEDALIA        CLOUDY    24  21  88 CALM      30.34S FOG
OSAGE BEACH    CLOUDY    25  23  93 CALM      30.33F

$$
MOZ051-052-059>065-011100-
...EAST CENTRAL MISSOURI...

CITY           SKY/WX    TMP DP  RH WIND       PRES   REMARKS
ST LOUIS INTL  LGT SNOW  26  23  88 CALM      30.36F FOG
SPIRIT OF STL  CLOUDY    25  24  96 CALM      30.36S FOG
ST CHARLES     LGT SNOW  25  23  92 CALM      30.37F FOG

$$
MOZ072>076-082>087-097>100-106>115-011100-
...SOUTH CENTRAL AND SOUTHEAST MISSOURI...

CITY           SKY/WX    TMP DP  RH WIND       PRES   REMARKS
CAPE GIRARDEAU FRZ RAIN  32  28  85 SE5       30.36S WCI  27
FARMINGTON     CLOUDY    28  25  86 W3        30.34S
POPLAR BLUFF   FRZ RAIN  31  25  78 CALM      30.36S
WEST PLAINS    CLOUDY    29  26  89 CALM      30.29F FOG

$$



USA.gov is the U.S. government's official web portal to all federal, state and local government web resources and services.